SWARM A

Last updated on Sun Apr 12 2026 00:03:41 GMT+0000 (Coordinated Universal Time)

1 39452U 13067B 26101.47349588 .00010438 00000+0 18831-3 0 9997 2 39452 87.3293 80.9966 0003640 94.5749 265.5927 15.49587164695912
UTC large
Height (km)
Speed (km/s)
/
Latitude / Longitude
Inclination (degrees)
Orbital Period (minutes)
Azimuth
Elevation
Range (km)
Doppler Factor

Next 0 passes for location: London (51.5072 / 0.1276)

Sorry there are no passes over London.
SWARM A